Wind_Speed
22 21 20 18 17 16 14 14 14 16 17 17 16 16 17 17 17 18 18 19 18 17 16 13 12 12 13 15 17 18 18 17 17 17 15 12 11 10 8 8 7 6 6 7 7 9 10 11 11 11 10 11 11 12 12 12 12 12 12 12 12 12 12 12 11 10 10 10 11 13 14 15 16 17 19 20 20 21 22 23 23 24 25 25 26
23 22 19 17 17 16 15 14 15 16 17 17 17 16 16 16 16 17 18 18 17 16 14 12 10 10 12 15 17 17 15 14 15 15 14 11 10 9 8 7 7 7 7 7 8 9 11 11 11 11 11 11 12 12 12 13 13 12 12 12 12 13 13 12 11 10 9 10 11 12 14 14 15 15 16 18 19 21 22 23 23 24 24 25 26
23 21 18 17 17 16 15 15 15 16 17 17 17 16 15 15 16 17 17 16 15 14 12 11 10 11 13 16 17 15 13 13 14 14 13 11 10 9 8 8 8 8 8 8 9 10 11 12 12 11 11 11 12 12 13 13 13 12 12 12 13 13 13 12 10 9 9 10 11 12 13 13 14 14 15 16 18 20 22 22 23 23 24 24 25
23 20 18 18 18 17 15 15 16 16 16 16 16 15 15 15 16 16 16 14 13 12 11 10 12 15 18 18 16 14 14 14 14 14 12 11 10 9 9 9 9 9 9 9 10 11 12 12 12 12 12 12 13 13 14 14 13 12 12 13 14 14 13 11 10 9 8 9 10 11 12 13 14 15 16 17 18 19 20 22 22 23 24 24 24
22 20 19 19 18 17 16 16 15 15 15 15 15 14 15 16 16 15 14 12 12 11 10 12 16 20 21 19 16 15 14 14 13 13 11 10 10 9 9 9 9 9 9 10 11 12 13 13 13 13 13 14 14 15 15 14 13 12 12 13 14 14 12 10 9 8 8 9 9 11 12 14 15 15 17 18 18 19 19 20 22 23 24 24 25
22 21 21 20 18 17 16 16 15 15 15 14 14 14 15 16 15 14 12 12 11 10 11 16 21 22 21 18 15 14 13 12 12 12 11 10 10 9 10 9 9 10 10 11 12 13 14 14 14 15 16 16 16 16 16 15 14 13 13 13 14 13 11 9 9 8 8 9 10 11 13 14 15 15 15 17 18 19 20 20 21 22 23 24 24
23 22 22 20 18 17 16 16 16 16 15 14 14 15 15 15 14 12 11 11 12 12 15 19 22 22 20 17 14 12 12 11 11 10 10 10 9 9 9 9 9 10 12 12 13 14 15 16 16 17 17 17 17 16 16 16 15 14 13 13 14 13 11 9 9 8 9 10 11 12 13 13 14 14 14 15 16 18 19 20 20 21 21 22 23
24 24 23 21 18 17 17 17 17 16 15 14 14 15 15 14 13 12 12 12 14 17 19 21 21 20 17 14 12 11 11 10 10 9 9 9 9 9 9 9 10 11 13 13 14 15 16 17 18 18 17 17 16 16 17 16 15 15 14 14 14 13 11 10 10 10 10 11 12 13 14 14 13 14 14 15 15 16 17 18 19 20 20 20 21
26 25 23 20 18 17 18 17 17 16 14 14 14 14 13 13 12 12 12 14 17 21 22 21 18 16 14 12 11 11 10 10 10 9 9 9 9 8 9 10 11 12 14 15 16 17 18 19 19 17 17 17 16 16 17 16 16 16 15 15 14 13 12 11 11 12 12 13 13 13 14 14 14 13 14 14 15 15 16 17 19 20 20 20 19
27 26 23 20 18 18 19 18 16 15 14 13 13 13 12 12 11 12 13 16 21 23 22 18 15 14 13 12 11 11 10 10 10 10 10 9 9 9 10 11 12 14 15 16 17 18 19 20 18 17 16 16 15 15 16 16 16 17 18 18 16 14 13 12 12 13 14 14 14 14 14 14 14 14 14 15 15 16 16 16 17 18 19 19 19
27 26 23 20 19 19 19 18 16 15 14 13 12 12 12 11 11 12 14 17 22 22 19 16 15 14 13 12 11 11 11 11 11 11 10 10 10 10 11 12 14 15 16 17 18 19 20 19 18 17 17 16 15 16 16 16 17 18 20 19 18 16 14 14 14 15 15 16 16 15 15 15 15 15 15 15 16 16 15 15 15 15 15 16 17
27 26 23 20 20 21 20 18 17 15 14 13 12 12 12 11 12 13 15 18 22 21 18 16 15 15 14 13 12 12 12 12 12 12 12 12 12 13 13 14 15 17 18 19 19 20 21 19 19 19 18 17 17 17 18 18 17 19 20 20 20 19 17 15 15 16 16 17 17 16 16 15 15 15 15 16 16 16 16 16 15 15 15 15 16
27 25 22 20 21 21 20 19 17 16 14 13 12 13 12 12 13 13 15 19 21 21 20 18 17 16 16 14 13 13 13 14 14 14 14 15 15 15 16 17 18 18 19 19 20 21 21 19 19 20 19 18 19 19 19 18 17 18 19 20 21 20 18 17 17 17 17 17 17 17 16 15 14 14 15 16 16 17 18 18 17 16 16 17 17
25 23 21 20 21 22 21 20 18 16 15 13 12 12 12 12 13 14 16 19 21 22 21 20 18 17 17 16 16 16 16 16 17 17 18 19 19 19 19 20 20 20 21 21 21 22 21 20 20 19 19 19 19 19 18 17 18 19 20 21 22 21 19 19 18 18 18 18 18 18 17 16 14 14 15 15 16 17 18 18 18 17 17 18 18
24 22 21 21 22 22 21 20 19 17 16 14 13 12 12 12 13 14 15 17 20 22 22 21 21 20 19 19 18 18 19 19 20 21 22 23 24 23 23 23 22 22 23 23 23 23 22 21 20 20 19 20 20 20 18 18 19 20 20 21 23 22 20 20 19 18 18 19 19 18 18 17 15 14 15 16 16 17 18 18 18 18 19 19 18
24 21 21 22 22 22 22 21 20 18 16 15 13 12 11 11 12 13 14 16 19 21 23 23 23 23 22 22 22 22 23 23 24 25 26 26 27 27 26 25 24 24 25 26 25 24 22 22 21 20 20 21 20 19 19 19 20 19 19 21 23 23 21 21 20 20 20 20 19 18 18 18 16 15 15 16 17 17 18 18 18 18 19 18 17
24 22 21 22 22 22 22 22 21 19 17 15 14 12 11 11 12 13 15 16 18 20 22 24 25 26 26 26 26 27 27 28 29 29 29 30 31 30 29 28 26 27 29 29 27 24 22 22 22 21 21 21 20 20 19 19 20 19 20 22 23 23 22 22 21 21 21 20 20 19 19 18 17 15 15 16 17 17 18 19 18 18 19 19 18
24 22 21 22 22 22 22 23 22 20 17 15 13 12 12 11 12 13 14 16 18 20 22 24 26 27 28 29 30 30 31 32 33 33 33 33 33 32 31 30 29 30 32 31 28 26 24 23 21 21 22 22 21 21 20 20 20 20 21 22 23 23 22 22 22 22 22 21 21 20 19 18 17 16 16 17 18 18 18 19 19 19 19 19 20
24 21 21 22 22 22 22 23 22 20 18 16 14 14 14 13 14 14 15 16 18 20 22 23 25 27 29 31 31 32 33 34 35 37 35 34 35 35 34 31 31 33 33 32 29 27 25 23 22 22 23 23 23 23 21 20 20 21 22 23 23 23 23 23 23 23 22 22 21 20 19 18 17 16 17 18 18 18 18 19 19 19 19 20 21
22 21 22 22 22 22 23 23 22 19 18 17 17 16 16 16 16 16 16 18 19 20 22 23 25 27 29 29 30 31 32 33 35 35 31 27 29 32 33 32 32 33 33 31 27 24 23 23 22 23 24 24 24 24 22 20 20 22 24 24 23 23 23 23 23 23 22 21 20 20 19 17 17 17 17 18 19 18 18 18 19 19 19 20 21
22 22 23 22 22 22 22 22 21 20 20 20 19 18 18 17 17 18 18 19 20 21 22 23 26 27 27 26 26 26 26 27 28 27 23 19 20 23 26 29 30 31 32 31 25 21 20 22 22 23 25 25 25 25 24 21 21 23 25 25 24 23 23 23 23 22 21 21 20 19 18 17 16 17 18 18 19 19 18 18 18 19 19 19 20
22 22 23 22 22 22 22 22 22 22 22 21 20 20 19 19 19 19 20 21 22 23 24 24 25 24 22 20 19 19 19 20 22 22 20 18 17 18 20 22 24 26 28 28 24 20 19 20 21 24 26 26 26 26 24 22 23 25 26 26 24 23 23 23 23 22 21 21 20 19 19 17 17 17 19 19 19 18 18 18 18 18 19 20 20
22 22 22 21 21 21 22 23 23 23 22 22 21 21 20 19 19 19 20 21 22 23 22 20 19 17 14 13 16 18 18 20 22 22 21 18 16 16 15 15 16 18 22 24 22 19 18 18 20 24 26 27 27 26 24 23 24 26 27 27 25 24 24 24 23 22 22 21 21 20 19 18 17 18 19 19 19 18 18 17 17 18 18 19 20
21 21 21 21 21 22 23 24 23 22 22 22 21 21 20 19 19 19 20 21 21 20 19 16 14 13 13 15 19 20 20 20 20 20 19 17 15 15 13 13 14 16 18 20 20 19 19 19 20 24 26 27 28 26 24 24 26 27 28 27 26 25 25 24 23 22 22 21 21 20 19 19 19 19 20 20 19 19 18 17 16 16 17 18 19
21 21 21 21 22 23 25 25 23 22 22 21 21 20 19 18 18 19 19 19 18 17 16 15 14 14 16 20 21 20 18 17 17 17 17 17 17 16 15 15 16 16 17 19 20 20 20 20 21 24 27 28 28 27 25 25 27 27 28 27 27 27 27 25 24 23 22 21 21 20 20 19 19 20 21 21 20 19 18 16 16 16 17 18 20
21 21 22 22 23 25 25 23 22 21 21 20 20 19 18 18 19 19 18 17 16 15 15 17 17 17 19 20 18 16 15 16 17 17 18 19 19 19 19 18 18 19 19 20 21 21 21 22 23 26 27 29 28 26 25 26 27 27 27 27 27 28 27 26 25 23 23 22 21 21 20 20 21 22 22 21 19 18 17 16 16 17 19 20 21
20 21 22 22 23 24 23 21 20 20 19 18 18 18 18 19 19 19 17 16 15 14 15 17 17 16 16 16 14 13 14 16 18 20 21 21 21 21 21 21 22 22 22 21 21 21 21 22 24 27 29 30 29 27 28 29 28 27 27 27 27 28 27 26 25 24 24 23 22 21 21 21 21 22 21 20 18 17 16 16 18 19 21 22 23
20 20 21 21 22 21 20 19 18 17 17 17 17 17 18 19 19 18 17 15 14 13 14 15 15 13 12 12 13 14 15 17 20 22 22 23 23 22 22 23 24 25 25 24 22 22 21 22 25 28 30 31 29 28 29 30 27 25 25 25 26 26 27 26 25 24 24 24 22 21 22 22 22 22 21 19 17 17 17 19 20 22 23 25 26
20 19 19 19 18 18 17 16 16 16 16 16 17 17 18 18 17 17 16 15 15 14 14 14 14 13 12 13 14 15 16 19 21 21 21 22 23 23 23 23 25 26 28 28 26 23 22 23 25 28 30 31 30 29 30 30 28 26 25 25 25 26 26 26 26 25 26 25 23 22 23 24 24 25 25 22 20 19 19 21 23 25 26 27 28
19 18 17 16 15 15 15 15 16 16 16 17 17 16 14 14 14 14 14 14 13 12 11 12 14 14 14 14 15 15 17 19 19 19 19 21 22 23 24 24 24 25 28 30 28 25 23 24 26 28 29 30 30 29 30 30 29 28 28 29 28 27 27 27 27 27 27 27 27 26 27 27 27 28 27 26 24 22 22 24 26 28 29 29 29
18 17 16 15 15 15 15 16 17 17 17 17 16 14 13 13 13 13 13 12 11 11 12 14 15 16 15 15 16 18 20 18 16 17 19 21 22 22 22 22 22 23 25 26 27 26 26 26 27 28 28 28 28 27 27 28 28 29 31 32 30 28 27 27 27 27 28 28 28 29 30 30 31 30 29 28 26 26 26 27 28 29 29 29 29
17 17 17 16 17 17 17 18 18 17 17 16 14 14 15 14 13 13 14 12 12 16 18 17 16 16 16 16 18 20 19 16 15 18 20 21 20 19 18 18 19 20 22 23 24 25 26 27 26 26 27 26 25 25 26 28 28 29 32 33 31 27 26 26 27 28 29 29 29 30 31 32 33 33 32 30 29 29 29 30 30 29 29 28 29
17 17 17 18 18 19 19 18 18 17 16 15 13 13 14 15 15 15 14 12 14 20 21 18 16 18 19 19 20 20 18 17 19 21 21 20 19 19 18 18 18 19 20 20 19 20 23 24 25 26 26 26 26 25 26 27 27 29 30 31 28 25 25 26 28 29 29 29 29 30 32 32 33 33 32 31 31 31 31 31 30 29 28 28 29
18 18 18 19 19 19 18 18 17 17 17 16 14 13 16 18 18 16 14 14 18 24 24 20 17 19 20 20 20 20 19 19 20 21 22 21 20 20 19 19 18 18 17 17 17 17 19 21 23 25 26 26 26 25 26 27 28 28 27 24 23 23 24 26 27 27 27 28 29 30 30 31 31 31 30 30 30 30 30 30 30 29 29 30 31
17 17 18 18 19 19 19 19 18 18 17 16 14 16 19 21 20 18 16 18 22 24 24 21 20 21 21 20 18 19 20 20 20 21 22 22 21 20 19 19 19 17 16 16 16 16 17 19 21 23 25 25 26 27 27 28 26 23 21 20 22 23 23 24 25 25 26 27 27 28 28 28 28 28 28 28 29 29 30 30 30 30 31 32 32
16 16 17 18 19 19 20 20 20 19 18 16 15 16 19 20 20 18 17 19 22 23 22 20 20 22 23 21 20 22 23 22 21 20 21 21 21 21 19 18 19 18 17 16 15 15 16 17 18 20 21 22 23 24 23 21 19 18 19 21 23 22 22 22 22 23 25 25 26 26 26 26 26 26 27 27 28 28 29 30 30 32 33 33 33
17 17 17 18 20 20 20 21 20 19 18 18 18 18 19 19 20 21 21 23 26 27 26 22 21 23 23 23 23 23 22 19 18 19 19 19 20 20 19 18 18 18 17 16 15 15 15 16 16 16 16 15 15 15 15 14 15 18 20 22 22 22 21 21 21 22 24 25 25 25 25 25 25 26 27 27 28 28 30 31 32 33 34 34 34
18 19 19 19 20 20 20 20 20 20 19 19 19 20 20 19 20 22 23 24 26 27 29 27 25 24 24 22 21 19 18 17 18 19 19 19 20 20 19 18 18 18 17 16 15 15 15 16 16 16 15 14 13 13 14 16 18 20 22 23 23 22 20 20 21 23 23 24 25 25 25 25 27 28 29 29 30 31 32 33 34 34 34 34 34
19 20 20 19 19 20 21 20 20 21 20 19 19 20 20 20 21 22 23 23 23 24 26 25 21 18 18 17 17 18 18 18 19 19 19 20 20 20 20 19 19 19 18 17 16 16 16 16 17 16 16 15 15 15 17 19 20 21 23 23 22 21 21 21 23 23 23 24 24 25 26 27 29 31 32 32 33 34 34 35 36 36 35 34 33
20 20 20 20 20 22 22 22 21 22 21 19 20 21 22 22 23 23 21 20 19 20 22 21 18 16 17 19 21 20 18 17 18 18 19 21 21 20 20 20 19 19 19 18 17 16 16 16 17 17 17 17 17 17 18 19 19 20 21 21 21 21 22 22 22 22 24 25 25 26 28 30 31 33 34 34 35 36 36 36 36 34 34 33 33
20 20 21 22 22 23 23 22 21 21 21 20 21 22 22 22 22 21 20 19 19 20 21 20 20 20 21 21 19 17 16 18 19 19 19 20 20 18 18 18 18 18 18 18 17 16 16 17 18 18 17 17 17 16 16 16 17 17 18 19 20 21 21 21 22 23 24 26 27 28 30 31 32 34 34 35 35 35 34 33 32 32 32 32 32
20 20 22 23 23 22 22 22 22 22 22 22 21 20 20 20 20 20 20 19 19 19 19 18 19 19 17 16 14 15 17 18 18 18 19 19 18 16 16 16 17 17 17 17 16 16 16 16 17 17 16 15 14 13 14 14 15 17 18 19 20 20 21 22 22 24 25 27 28 29 30 32 33 33 33 33 33 32 31 30 30 30 30 31 31
21 21 22 22 22 22 22 22 22 22 21 20 20 19 20 20 19 19 18 17 17 17 17 18 19 18 17 16 16 16 17 16 17 18 19 18 15 14 15 16 17 17 17 16 16 15 15 16 16 15 14 13 12 12 13 15 16 17 18 19 20 20 21 22 24 25 27 28 29 30 31 31 32 31 31 30 29 28 28 28 29 30 31 32 33
23 22 22 22 22 22 22 22 22 21 20 20 20 20 20 20 19 19 18 18 17 17 17 17 18 18 17 16 15 15 15 17 18 19 18 16 15 15 15 16 17 17 16 16 16 16 15 15 14 13 12 11 12 12 14 15 16 17 18 19 20 21 22 24 25 26 27 28 29 29 29 29 29 29 28 27 27 27 27 28 30 31 32 33 35
23 23 22 22 22 23 23 23 22 21 21 21 20 19 19 19 18 18 18 18 17 16 15 15 16 16 15 14 13 13 15 17 17 17 16 15 15 16 16 16 15 15 15 16 16 15 14 13 13 12 10 10 10 11 13 14 16 17 18 19 20 22 24 25 25 25 25 26 26 26 26 26 26 25 25 25 25 27 28 29 31 32 34 36 38
23 23 23 23 23 24 24 24 24 23 24 23 21 19 19 19 17 16 17 17 16 14 14 15 15 14 13 13 13 13 14 16 17 16 16 16 16 17 16 16 15 15 16 16 15 13 12 11 10 9 8 9 9 10 11 13 14 16 17 19 21 22 23 23 22 22 22 22 23 23 23 23 22 22 23 25 26 28 29 31 33 35 37 38 39
23 23 23 23 23 24 24 24 24 24 25 23 20 19 19 18 17 17 18 18 17 16 17 17 16 13 12 13 14 14 15 17 18 18 17 17 17 17 16 16 16 16 15 13 12 10 9 9 8 8 8 8 9 9 10 12 14 16 18 19 19 19 19 18 19 19 19 19 19 20 20 20 21 23 24 26 27 29 31 33 35 36 37 38 39
22 22 22 22 22 22 22 22 23 23 23 21 20 21 23 22 21 21 22 21 19 18 18 18 16 14 13 15 15 15 16 17 18 18 18 18 17 17 17 16 15 14 12 10 9 8 8 7 7 8 8 9 10 11 13 14 15 15 15 15 14 15 15 16 16 17 17 17 18 18 20 21 23 24 26 28 30 31 32 33 35 36 38 40 41
22 22 22 22 22 22 23 23 24 24 24 23 22 23 23 22 23 23 23 23 21 20 18 16 15 14 13 14 14 14 15 16 17 17 18 17 17 16 15 14 12 11 10 9 8 7 7 7 8 9 10 11 11 12 12 11 11 11 11 11 12 13 14 14 15 15 16 17 18 20 22 23 25 27 29 30 31 32 33 35 37 39 40 40 40
21 21 22 22 23 23 24 24 25 26 26 26 26 26 25 25 25 24 22 21 20 19 17 14 13 12 13 14 15 16 16 16 16 17 16 15 14 14 12 11 10 10 10 9 8 8 8 9 9 9 8 8 7 7 7 7 8 9 10 11 12 13 13 14 15 16 18 19 21 23 25 26 27 29 29 30 32 34 36 38 39 39 38 38 37
19 19 20 21 21 21 22 23 23 24 24 25 25 25 25 25 24 22 20 18 18 16 14 13 13 14 15 17 17 17 17 16 15 14 13 12 11 11 11 10 10 10 9 8 7 7 7 7 6 5 5 5 5 5 6 7 8 9 10 11 12 12 14 15 17 19 21 23 25 26 26 27 28 30 31 33 35 37 38 38 37 36 36 36 36
Wind_Direction
229 228 229 233 238 243 248 246 240 240 243 243 241 239 237 238 240 241 246 252 255 257 254 247 247 242 230 225 222 221 222 215 207 212 218 221 221 221 220 220 228 242 253 264 275 282 285 283 281 283 289 292 294 297 298 299 302 304 304 301 298 293 286 284 286 294 305 317 326 333 340 343 342 340 337 336 336 336 336 337 337 336 337 338 340
229 228 230 235 240 246 249 242 234 236 238 239 241 240 239 240 241 246 252 255 257 257 247 237 240 236 223 219 215 211 210 210 214 219 218 217 223 226 224 228 239 247 256 269 277 282 284 283 283 285 287 288 291 296 298 299 300 301 300 297 293 288 283 283 289 298 312 325 333 340 346 345 343 342 340 338 337 337 338 338 336 337 337 338 341
226 226 230 236 241 247 249 239 232 234 234 236 240 241 241 243 246 250 253 255 256 250 238 233 228 210 201 199 197 202 216 225 222 218 215 220 227 227 227 235 244 251 262 272 278 283 285 284 283 282 283 287 291 295 294 294 295 295 294 291 287 284 283 288 296 307 324 336 341 346 346 343 341 342 340 338 338 338 338 336 334 336 338 339 342
223 224 228 233 240 247 247 238 233 233 233 237 241 241 242 243 247 251 252 252 249 239 232 228 207 189 189 193 201 220 232 227 218 214 217 224 228 230 234 241 250 259 269 275 281 286 286 284 282 281 283 286 287 288 287 287 289 290 288 285 283 283 286 294 303 315 334 342 343 343 341 338 338 339 338 338 340 340 337 334 335 337 338 340 344
221 223 227 232 238 244 243 236 232 233 234 239 242 241 241 241 245 249 248 243 237 230 223 209 189 182 189 201 216 229 226 218 215 215 218 224 229 235 241 248 258 267 274 279 285 288 285 283 281 281 282 282 282 284 284 285 287 287 285 282 281 284 288 296 305 319 335 337 335 335 333 333 335 337 338 340 341 340 337 336 338 338 338 341 346
219 222 226 231 237 239 236 231 230 232 235 238 239 238 237 240 244 245 240 235 227 214 201 190 183 185 195 208 219 221 215 214 214 214 219 225 229 238 248 258 267 272 278 283 286 287 284 283 283 282 280 280 282 284 284 284 284 283 282 281 281 285 289 296 306 318 326 325 326 329 330 331 333 336 340 340 339 338 338 341 341 339 340 343 346
218 221 225 230 234 232 227 225 226 229 234 235 232 233 236 239 242 237 230 226 211 194 187 184 184 191 202 212 216 213 213 215 216 218 223 227 234 248 258 266 271 275 281 284 285 285 283 283 283 281 280 281 283 283 283 283 283 282 282 281 282 284 288 295 303 310 315 317 322 324 325 328 331 334 339 340 339 339 340 340 339 339 342 345 347
217 220 225 229 231 226 219 219 223 226 231 231 229 233 236 236 236 227 219 214 196 183 180 181 187 198 208 213 213 212 216 219 221 226 230 238 248 258 265 270 274 278 281 282 283 282 280 281 281 281 281 282 283 284 285 284 285 285 283 281 281 283 287 293 299 303 307 312 317 319 321 324 328 333 338 340 341 341 339 338 337 339 343 346 346
217 220 224 228 227 222 216 217 222 225 228 231 232 235 234 232 229 218 212 205 188 179 179 184 194 204 210 212 214 218 222 225 231 235 240 249 257 261 267 272 275 278 280 280 280 279 278 280 282 282 283 285 287 289 289 288 289 290 288 284 282 282 285 290 295 299 304 308 312 315 317 321 325 332 337 339 339 339 339 340 339 339 342 344 345
217 219 222 226 224 218 216 218 222 226 228 232 234 233 232 231 224 215 211 200 185 180 183 190 200 207 210 214 218 223 228 234 239 242 246 252 257 261 266 271 276 278 278 278 278 277 278 280 282 283 283 285 287 289 288 289 290 291 290 286 281 280 283 287 292 297 302 305 308 311 314 316 321 329 335 336 338 339 340 340 339 340 341 342 341
218 219 221 224 221 216 216 218 222 225 227 229 230 228 228 228 220 215 212 197 184 183 188 195 202 207 213 218 222 227 233 239 243 245 248 252 255 260 266 272 275 276 276 277 277 277 279 280 281 282 280 279 281 282 282 282 283 285 287 285 281 278 279 283 289 295 300 303 305 308 311 313 319 327 333 335 336 336 335 333 334 337 336 335 336
218 218 220 221 219 216 215 216 221 225 225 225 226 224 225 223 218 217 212 199 190 190 196 201 206 212 216 220 224 231 238 243 246 248 249 253 259 264 269 272 272 272 273 275 275 277 279 280 280 279 276 275 278 277 274 274 277 281 284 284 281 277 276 280 286 292 297 300 302 305 308 312 317 324 329 331 332 331 328 327 329 330 330 330 333
217 217 218 220 217 215 214 216 221 223 223 223 223 223 224 221 218 217 212 204 199 200 204 209 213 217 221 224 228 234 240 245 249 252 254 259 265 268 271 272 270 270 270 271 272 274 275 274 275 275 274 275 277 273 269 269 273 277 280 280 277 274 275 279 284 289 295 297 299 302 305 308 313 320 325 328 329 326 323 322 325 328 329 330 332
218 216 216 218 217 215 213 216 220 221 222 223 223 225 226 223 220 219 215 212 209 210 213 217 221 226 229 231 234 239 244 248 252 256 260 265 269 272 274 273 270 268 268 268 270 271 271 270 270 271 272 274 273 269 264 265 270 275 278 278 274 272 274 278 282 287 292 294 296 298 300 303 308 316 323 325 324 321 317 318 323 326 327 328 330
219 216 216 218 217 215 214 216 220 221 222 224 224 226 227 226 224 223 222 221 219 219 221 224 228 233 236 239 241 245 249 253 256 261 265 268 271 273 274 273 271 269 267 266 265 266 266 266 266 267 269 271 270 265 260 263 273 279 280 277 274 272 273 277 281 285 288 290 291 294 296 299 303 313 319 320 318 316 315 316 321 323 324 327 330
220 218 217 218 217 215 214 217 221 222 222 224 227 227 228 230 230 228 227 227 226 227 229 231 234 238 242 246 248 250 253 257 261 265 268 270 271 271 271 271 269 267 265 262 259 258 258 259 260 263 266 268 267 261 258 266 278 282 280 277 275 274 275 277 281 283 284 285 288 291 294 297 301 309 315 315 314 315 316 316 318 320 322 324 326
221 218 218 218 219 216 214 218 223 224 223 225 227 228 229 230 231 231 231 231 231 233 235 237 239 243 247 251 254 257 259 262 265 268 270 271 270 269 269 268 267 266 264 262 257 253 253 254 256 259 263 266 264 256 256 269 280 281 279 277 275 275 277 278 280 281 281 283 285 289 292 296 301 307 312 313 314 315 316 315 315 317 318 319 319
221 219 218 219 219 217 216 219 223 224 224 226 228 230 230 231 232 233 233 233 235 237 238 241 243 246 250 253 256 259 262 264 267 267 267 268 268 268 268 268 268 267 266 265 260 254 250 249 251 256 261 262 259 253 256 270 280 280 277 274 273 275 276 277 278 279 279 281 284 287 292 296 302 308 312 313 313 314 313 312 312 313 314 315 316
220 217 217 220 219 217 216 220 223 225 225 227 229 229 230 231 232 233 234 234 236 237 239 242 246 248 251 254 257 259 262 264 265 265 264 263 263 265 266 267 269 269 270 269 265 259 253 248 248 252 257 258 256 253 257 269 279 282 279 274 272 273 274 275 276 278 279 282 285 288 292 297 302 308 311 311 311 310 310 311 311 311 312 314 315
215 214 217 219 218 216 217 221 224 226 225 226 229 230 231 232 233 235 238 239 241 243 244 246 248 250 253 256 258 261 263 266 268 271 273 270 264 263 264 265 267 269 272 273 272 268 262 254 249 251 254 255 253 253 257 267 277 282 279 274 272 273 274 275 277 279 281 283 285 288 292 296 301 306 308 307 307 308 310 311 310 310 313 315 316
209 211 216 219 218 216 217 221 224 226 226 228 230 232 235 237 238 239 241 243 246 249 250 251 252 254 255 258 261 264 268 273 278 285 289 283 272 266 264 264 266 267 271 275 277 274 264 254 250 251 253 253 252 253 257 264 274 279 276 272 272 273 275 276 277 279 282 284 285 288 291 295 299 304 304 303 304 306 308 309 310 312 316 317 316
208 212 215 218 216 215 216 220 223 225 227 230 233 237 241 243 244 244 246 248 251 253 255 259 261 262 263 266 272 278 281 286 291 296 296 288 281 276 269 266 266 266 268 273 275 273 263 252 246 249 252 253 252 253 256 265 276 279 274 270 270 272 274 276 277 279 281 283 286 289 291 295 299 301 301 300 302 306 307 309 312 316 319 318 318
208 214 216 216 214 214 216 221 224 226 230 234 237 241 244 247 250 252 251 251 254 257 261 267 275 283 290 290 289 287 286 287 289 291 292 288 285 282 275 271 272 271 271 273 273 272 265 255 247 247 252 255 254 254 258 268 276 277 272 268 269 270 272 274 276 279 281 283 287 289 291 294 297 298 299 300 302 305 307 311 316 318 319 320 323
210 213 214 212 211 213 217 222 226 229 232 236 239 243 248 253 259 262 260 258 258 261 265 274 285 294 293 286 283 284 283 283 283 285 286 284 281 277 271 270 273 275 275 275 274 271 264 255 248 247 250 254 255 256 260 267 273 274 271 269 268 268 270 272 274 277 279 282 286 289 290 293 295 296 297 299 302 305 307 313 318 320 321 324 326
209 209 209 208 210 215 220 224 227 230 233 238 242 247 253 259 265 269 267 265 265 267 274 283 287 283 278 279 282 282 279 279 280 281 282 281 278 274 267 263 264 264 264 265 264 262 257 250 245 245 249 253 254 256 260 265 269 271 271 269 267 267 268 270 272 274 277 280 284 287 289 292 294 295 295 297 300 303 307 314 320 321 323 325 326
206 206 206 207 211 218 223 226 228 231 235 239 244 251 258 264 269 271 269 268 268 267 269 271 269 268 273 279 282 279 277 279 283 284 283 280 277 273 268 263 261 260 259 259 259 257 255 250 247 246 248 251 252 255 260 263 264 268 270 269 268 267 267 268 271 273 276 279 283 286 289 291 293 293 293 295 299 303 308 316 320 321 322 324 324
205 206 208 209 212 220 225 227 229 232 236 241 247 254 260 265 270 272 271 270 268 265 262 262 262 266 272 275 278 282 287 289 289 288 286 283 280 276 271 266 263 262 261 260 259 256 252 249 247 247 249 251 252 254 260 262 261 263 266 267 267 267 266 267 269 273 276 278 281 285 288 289 291 291 292 295 299 305 312 318 319 317 316 316 315
203 207 210 212 215 221 226 229 232 236 240 245 250 256 260 263 266 269 271 269 268 268 270 272 274 274 274 276 281 285 287 286 285 285 286 286 285 284 281 277 273 269 263 258 253 251 248 245 245 247 250 253 254 254 257 258 256 257 261 264 264 263 262 264 267 271 275 278 281 285 287 288 290 292 295 298 302 307 313 313 311 308 307 307 309
203 210 213 216 218 223 228 233 239 241 243 248 252 253 254 255 256 263 269 268 265 266 269 269 266 265 267 274 278 279 278 278 280 284 287 288 288 288 289 288 285 280 272 262 253 247 244 241 241 245 250 254 257 259 260 258 255 254 258 261 260 258 259 262 266 269 272 276 281 284 287 289 291 292 294 295 297 301 303 302 302 303 304 306 309
206 211 216 219 221 224 228 235 241 243 246 250 250 248 249 250 254 262 268 266 262 264 268 265 259 258 262 266 268 270 271 273 280 289 294 292 289 288 290 293 293 290 283 274 265 258 251 244 241 244 249 254 259 263 266 264 260 257 257 258 259 261 263 265 267 269 271 274 278 281 284 286 287 287 287 288 291 293 295 297 299 301 304 306 306
210 215 220 223 226 228 229 233 238 240 244 247 245 245 253 257 256 259 262 264 268 274 276 268 260 258 262 265 267 269 269 270 281 294 296 293 290 290 292 293 293 290 285 280 274 269 262 254 248 247 251 256 261 264 265 264 261 259 259 258 259 263 267 268 268 269 271 275 278 280 281 282 281 280 281 284 288 290 292 294 297 299 303 304 305
215 219 221 224 227 228 229 230 231 234 239 240 235 237 250 258 258 255 255 255 258 265 267 265 261 263 266 266 269 275 280 284 290 294 293 292 291 292 292 293 292 289 286 284 281 276 272 267 261 259 259 260 262 263 263 262 260 261 263 262 261 265 271 271 270 271 274 278 280 281 280 279 279 279 280 283 286 289 291 294 297 300 302 302 302
217 218 219 221 224 226 227 227 227 229 233 233 227 231 247 258 257 251 249 247 250 255 255 253 258 268 272 269 272 279 287 292 294 296 298 297 294 290 288 289 291 292 291 291 289 284 280 276 271 267 264 262 259 259 258 259 261 265 268 266 265 270 275 275 273 275 276 277 279 280 280 280 280 281 283 285 287 290 293 296 299 300 301 301 301
217 218 218 219 222 225 224 224 225 226 230 232 230 231 246 257 256 252 255 259 260 262 263 262 264 271 275 275 277 281 284 288 291 296 299 299 297 291 287 287 289 288 286 286 285 282 280 277 273 270 268 264 260 255 253 257 263 268 269 269 270 274 276 275 274 274 274 275 278 281 282 282 283 284 286 288 290 292 295 297 299 301 301 301 301
216 217 218 220 223 225 224 223 223 224 228 232 231 228 235 246 251 249 248 250 253 260 268 275 277 277 278 279 279 280 281 283 286 289 292 295 296 293 286 283 282 280 276 277 279 278 277 276 274 271 269 265 260 255 254 258 262 265 268 271 272 271 269 267 267 270 273 277 281 283 284 285 285 286 287 287 289 292 294 297 299 300 299 299 299
221 223 224 225 226 227 226 227 227 227 231 235 237 234 236 244 252 256 257 260 261 258 258 263 272 277 278 277 277 280 283 284 285 289 293 295 295 292 285 277 274 275 275 276 278 280 279 278 276 273 271 268 263 258 256 255 255 258 262 264 264 262 259 260 265 273 279 283 286 286 286 286 287 286 286 287 290 292 295 297 297 296 295 295 295
233 234 233 232 231 231 231 232 234 236 237 238 239 241 243 247 254 260 264 267 268 266 263 263 266 270 272 272 277 284 288 289 291 296 298 297 295 293 288 279 274 274 273 273 277 280 279 278 276 273 270 264 255 249 246 245 247 250 251 252 253 253 254 259 268 277 283 285 286 286 286 287 288 289 289 290 291 292 293 293 292 291 291 293 294
240 241 241 240 241 241 240 241 243 246 246 243 242 245 247 249 253 258 261 263 266 272 277 276 269 265 267 271 276 281 284 289 295 299 298 297 295 292 288 283 278 274 271 270 273 274 274 274 275 273 267 256 243 237 239 242 243 241 239 240 245 250 254 262 272 278 282 284 285 286 286 288 290 291 290 290 289 290 290 291 291 292 293 295 296
241 243 244 244 246 249 249 249 251 253 254 253 251 251 253 255 257 260 264 268 270 274 278 279 274 269 270 272 272 274 278 285 293 296 296 296 294 288 283 278 273 270 269 268 268 267 266 267 267 264 258 249 242 240 243 243 241 237 235 238 244 250 256 263 270 276 280 283 284 285 286 286 287 287 287 287 289 290 292 293 294 296 298 299 300
243 245 245 243 244 248 251 253 256 259 262 261 257 255 254 255 256 259 262 264 264 264 267 270 272 272 271 270 271 273 276 280 283 287 291 293 291 286 282 277 271 269 270 270 270 269 265 260 255 251 247 245 245 246 248 247 244 242 243 246 250 254 259 265 270 274 278 280 281 281 281 280 281 283 285 287 290 291 293 294 297 299 301 302 302
248 250 251 249 248 251 254 256 258 259 260 259 256 254 252 250 253 257 258 256 257 260 264 270 276 275 271 268 267 270 275 278 280 283 286 287 287 284 280 276 273 271 271 272 272 271 265 258 252 248 247 247 248 248 249 249 248 248 250 254 259 262 265 270 272 274 276 277 277 278 278 280 282 285 287 290 292 294 296 298 300 301 302 302 303
250 250 251 251 252 253 253 254 254 254 253 253 252 252 252 251 252 255 256 256 259 263 269 276 279 276 269 264 264 271 277 280 281 283 283 284 285 284 281 278 275 273 272 272 270 267 262 256 252 248 247 249 250 250 252 253 253 254 257 261 264 266 269 271 272 274 275 276 278 281 284 286 288 290 291 293 295 298 300 301 302 302 302 303 303
250 251 249 249 251 251 249 249 250 249 249 249 248 248 252 254 254 256 260 263 265 267 271 274 271 265 260 260 264 270 275 277 280 282 282 281 281 283 282 281 276 272 270 269 267 262 258 254 251 248 247 249 252 256 259 261 261 262 263 264 266 268 270 271 272 273 276 280 285 288 291 292 293 295 297 299 300 302 302 302 302 302 301 301 301
251 253 252 249 249 249 249 248 246 243 243 245 246 248 253 257 259 261 263 263 264 266 269 269 262 256 257 264 270 274 276 276 277 279 278 278 280 282 282 280 274 269 266 264 261 258 254 252 253 254 255 257 261 263 264 265 265 264 264 264 265 267 269 271 273 278 283 288 291 292 293 295 296 299 300 301 301 301 301 301 301 301 301 302 303
250 252 252 250 249 249 248 246 242 238 238 241 244 249 255 258 261 262 262 262 261 260 259 257 252 248 252 263 273 280 281 280 277 276 276 277 278 277 276 275 272 267 263 261 260 258 256 257 261 265 266 266 268 268 268 267 266 263 262 263 265 268 272 277 282 287 291 292 293 294 296 298 299 300 301 301 302 302 303 303 303 303 304 305 305
248 249 250 249 248 248 248 247 245 243 242 243 246 252 257 258 256 255 253 251 249 246 247 251 252 253 260 270 274 275 276 276 275 274 273 272 272 271 272 273 270 264 262 262 262 261 260 262 268 271 269 265 264 263 261 261 261 263 266 270 274 278 282 286 290 292 294 296 298 299 300 300 301 302 304 304 304 304 304 304 304 305 305 306 307
248 250 250 250 249 249 249 250 249 249 248 246 244 245 248 250 249 249 248 245 243 243 246 250 252 258 273 281 277 269 267 269 271 271 269 269 270 270 270 268 265 261 260 260 259 256 255 258 263 264 260 259 258 258 261 266 271 275 278 280 282 285 288 291 295 298 300 301 302 301 302 303 304 305 305 303 303 303 303 304 305 307 307 308 308
250 253 255 256 256 256 256 255 253 252 252 249 243 241 243 245 246 247 248 248 249 249 251 254 257 262 269 273 270 263 263 268 272 272 272 271 270 267 265 264 261 256 250 246 243 243 243 247 253 255 255 257 261 266 272 276 279 280 281 283 286 290 295 298 301 302 303 303 302 303 304 304 304 302 301 301 302 303 305 307 308 309 309 309 309
252 254 255 257 258 259 259 259 257 255 254 250 247 247 248 248 248 246 245 245 248 250 252 256 259 260 262 267 268 267 270 274 277 276 274 271 267 264 262 258 251 241 233 228 227 229 234 241 249 253 257 260 265 270 273 275 276 279 284 290 295 299 302 303 303 304 305 304 303 303 302 302 301 301 302 304 306 307 309 309 309 310 310 311 311
253 254 254 255 257 257 258 258 258 257 255 251 247 246 245 244 246 247 245 242 243 245 247 250 255 261 269 275 277 278 280 282 279 276 272 268 263 258 252 242 231 224 220 220 223 229 235 240 244 248 251 255 259 263 267 273 281 288 294 299 301 302 304 305 306 307 306 304 303 303 303 303 304 305 306 308 309 310 310 310 311 312 312 313 313
256 256 256 257 257 258 259 259 258 257 254 250 246 243 242 242 243 243 241 238 237 238 241 248 259 268 273 275 278 281 284 281 275 271 267 262 254 244 233 223 217 214 211 213 218 220 218 217 218 222 230 238 247 259 272 284 292 298 302 305 307 309 310 309 307 306 304 304 305 306 306 307 308 309 310 310 311 311 311 312 313 313 313 314 315
Height
3120 3122 3123 3125 3126 3128 3130 3131 3132 3133 3133 3134 3134 3135 3136 3136 3137 3138 3139 3139 3140 3140 3141 3141 3142 3142 3143 3145 3146 3147 3148 3148 3150 3152 3154 3154 3155 3155 3156 3156 3157 3157 3157 3157 3158 3158 3158 3158 3158 3157 3157 3156 3156 3155 3154 3153 3152 3151 3151 3150 3150 3150 3149 3148 3147 3145 3143 3142 3140 3138 3137 3136 3134 3132 3131 3129 3128 3126 3124 3122 3120 3118 3116 3114 3111
3118 3120 3121 3123 3124 3126 3128 3129 3130 3131 3131 3132 3132 3133 3134 3135 3136 3136 3137 3138 3138 3139 3139 3140 3141 3142 3143 3144 3145 3147 3148 3149 3150 3152 3152 3153 3153 3154 3155 3155 3156 3156 3156 3156 3156 3157 3157 3156 3156 3155 3155 3154 3154 3153 3152 3151 3150 3150 3150 3149 3149 3149 3148 3147 3145 3144 3142 3140 3139 3137 3136 3134 3133 3132 3131 3129 3127 3125 3123 3121 3119 3117 3115 3113 3110
3116 3118 3119 3121 3122 3124 3126 3127 3128 3129 3130 3130 3131 3132 3133 3133 3134 3135 3135 3136 3136 3137 3138 3139 3140 3141 3142 3143 3145 3146 3147 3148 3150 3150 3151 3151 3152 3153 3154 3154 3154 3155 3155 3155 3155 3155 3155 3155 3154 3154 3153 3153 3152 3151 3150 3150 3149 3149 3148 3148 3148 3147 3146 3145 3144 3142 3140 3139 3137 3136 3134 3133 3133 3132 3131 3129 3127 3125 3122 3121 3119 3117 3114 3112 3109
3114 3115 3117 3119 3120 3122 3124 3125 3126 3127 3128 3129 3129 3130 3131 3132 3133 3133 3134 3134 3135 3135 3136 3137 3138 3140 3141 3143 3144 3146 3147 3148 3148 3149 3150 3150 3151 3152 3153 3153 3153 3153 3154 3154 3154 3154 3153 3153 3153 3152 3151 3151 3150 3150 3149 3149 3148 3148 3148 3147 3147 3146 3145 3144 3142 3140 3139 3137 3136 3135 3133 3133 3131 3130 3129 3128 3126 3124 3122 3120 3118 3115 3113 3111 3108
3112 3114 3116 3117 3119 3120 3122 3123 3124 3125 3126 3127 3128 3129 3129 3130 3131 3131 3132 3132 3133 3134 3134 3136 3137 3139 3141 3142 3144 3145 3146 3146 3147 3148 3148 3149 3150 3151 3151 3152 3152 3152 3152 3152 3152 3152 3152 3152 3151 3150 3149 3149 3149 3148 3148 3148 3147 3147 3146 3146 3145 3145 3144 3142 3141 3139 3138 3136 3135 3134 3133 3132 3131 3129 3127 3125 3124 3123 3122 3120 3117 3114 3112 3109 3107
3110 3112 3114 3116 3117 3119 3120 3121 3122 3124 3125 3126 3126 3127 3128 3128 3129 3129 3130 3131 3131 3132 3133 3134 3136 3138 3140 3142 3143 3144 3145 3145 3146 3146 3147 3148 3149 3149 3150 3151 3151 3151 3151 3151 3151 3151 3150 3150 3149 3149 3148 3147 3147 3147 3147 3146 3146 3145 3145 3145 3144 3143 3142 3141 3139 3138 3137 3136 3134 3133 3132 3131 3130 3129 3127 3125 3123 3121 3120 3118 3116 3114 3111 3108 3105
3108 3110 3112 3114 3116 3117 3119 3120 3121 3122 3123 3124 3124 3125 3126 3127 3127 3127 3128 3129 3130 3131 3132 3133 3135 3137 3139 3141 3142 3143 3143 3144 3145 3145 3146 3147 3147 3148 3149 3149 3149 3149 3149 3149 3149 3149 3149 3148 3148 3147 3147 3146 3146 3146 3145 3145 3144 3144 3144 3143 3142 3142 3141 3139 3138 3137 3136 3134 3133 3132 3131 3130 3129 3128 3126 3125 3123 3121 3118 3116 3115 3113 3110 3107 3105
3106 3108 3110 3112 3114 3116 3117 3119 3120 3120 3121 3122 3122 3123 3124 3125 3125 3126 3126 3127 3128 3129 3131 3133 3134 3136 3138 3139 3140 3141 3142 3143 3143 3144 3145 3145 3146 3146 3147 3147 3147 3147 3148 3148 3148 3147 3147 3147 3146 3146 3146 3145 3145 3145 3144 3144 3143 3143 3142 3142 3141 3140 3139 3138 3137 3136 3135 3133 3132 3131 3130 3129 3128 3127 3125 3124 3122 3120 3119 3117 3114 3112 3110 3107 3104
3105 3107 3108 3110 3112 3114 3115 3117 3118 3118 3119 3120 3121 3121 3122 3123 3123 3124 3125 3125 3127 3128 3130 3132 3133 3135 3137 3138 3139 3140 3140 3141 3142 3143 3143 3144 3144 3145 3145 3145 3146 3146 3146 3146 3146 3146 3145 3145 3145 3145 3145 3144 3144 3144 3143 3143 3143 3142 3141 3140 3139 3139 3138 3137 3135 3134 3133 3132 3131 3130 3129 3128 3127 3125 3124 3122 3121 3119 3118 3116 3113 3110 3108 3105 3103
3103 3105 3106 3108 3110 3112 3114 3115 3116 3117 3117 3118 3119 3120 3121 3121 3122 3123 3123 3124 3126 3127 3129 3131 3132 3134 3135 3137 3138 3139 3139 3140 3141 3141 3142 3142 3143 3143 3144 3144 3144 3144 3144 3144 3144 3144 3143 3143 3144 3144 3144 3143 3143 3142 3142 3142 3141 3141 3140 3139 3138 3137 3136 3135 3134 3133 3132 3131 3130 3129 3128 3126 3125 3124 3122 3121 3119 3118 3116 3114 3112 3109 3106 3104 3101
3101 3103 3105 3107 3108 3110 3112 3113 3114 3115 3116 3117 3117 3118 3119 3120 3120 3121 3122 3123 3125 3126 3128 3130 3131 3133 3134 3136 3137 3137 3138 3138 3139 3140 3140 3140 3141 3141 3142 3142 3142 3142 3142 3142 3142 3142 3141 3142 3142 3142 3142 3141 3141 3141 3140 3140 3139 3139 3139 3138 3137 3136 3134 3134 3133 3132 3131 3130 3129 3127 3126 3125 3123 3122 3121 3119 3117 3116 3114 3113 3111 3109 3107 3104 3102
3099 3101 3103 3105 3107 3109 3110 3112 3113 3114 3115 3116 3116 3117 3118 3119 3119 3120 3121 3123 3124 3126 3127 3129 3130 3132 3133 3134 3135 3136 3136 3137 3137 3138 3138 3139 3139 3140 3140 3140 3140 3140 3140 3140 3140 3139 3139 3140 3140 3140 3140 3139 3139 3139 3138 3138 3137 3137 3137 3136 3135 3134 3133 3132 3131 3130 3129 3128 3127 3126 3125 3123 3122 3120 3119 3117 3115 3114 3112 3111 3110 3109 3107 3104 3102
3097 3099 3101 3103 3105 3107 3109 3110 3111 3113 3114 3114 3115 3116 3117 3118 3118 3119 3121 3122 3124 3125 3126 3128 3129 3131 3132 3133 3134 3134 3135 3135 3136 3136 3136 3137 3137 3138 3138 3138 3138 3137 3137 3137 3137 3137 3137 3137 3137 3137 3137 3137 3137 3136 3136 3136 3135 3135 3134 3134 3133 3132 3131 3130 3130 3129 3128 3127 3126 3124 3123 3122 3120 3119 3117 3115 3113 3112 3110 3109 3108 3106 3104 3102 3100
3096 3097 3099 3101 3103 3106 3107 3109 3110 3111 3112 3113 3114 3114 3115 3117 3117 3118 3120 3121 3123 3124 3126 3127 3128 3129 3130 3131 3132 3133 3133 3133 3134 3134 3134 3134 3135 3135 3135 3135 3135 3135 3134 3134 3134 3134 3134 3135 3135 3135 3135 3135 3134 3134 3134 3134 3133 3133 3132 3132 3131 3130 3129 3129 3128 3127 3126 3125 3124 3123 3122 3120 3119 3117 3115 3114 3112 3111 3109 3107 3105 3104 3102 3100 3098
3094 3095 3097 3100 3102 3104 3106 3107 3108 3110 3111 3112 3113 3113 3114 3115 3116 3118 3119 3120 3122 3123 3125 3126 3127 3128 3129 3129 3130 3130 3131 3131 3131 3132 3132 3132 3132 3132 3133 3132 3132 3132 3131 3131 3131 3131 3131 3132 3132 3132 3133 3132 3132 3132 3132 3131 3131 3131 3130 3130 3129 3128 3128 3127 3126 3126 3125 3124 3123 3121 3120 3119 3117 3115 3114 3112 3111 3110 3108 3106 3104 3102 3100 3098 3096
3092 3093 3096 3098 3100 3103 3105 3106 3107 3108 3110 3111 3112 3112 3113 3114 3115 3117 3118 3119 3120 3122 3123 3124 3125 3126 3126 3127 3127 3128 3128 3128 3129 3129 3129 3129 3129 3129 3129 3129 3129 3128 3127 3127 3127 3127 3128 3129 3129 3129 3130 3130 3129 3129 3129 3129 3129 3129 3128 3128 3127 3126 3126 3125 3124 3124 3123 3122 3121 3119 3118 3117 3115 3114 3112 3111 3110 3108 3107 3105 3103 3101 3100 3098 3096
3090 3092 3094 3096 3099 3101 3103 3104 3105 3107 3108 3109 3111 3112 3112 3113 3114 3115 3116 3118 3119 3120 3121 3122 3123 3123 3124 3124 3124 3125 3125 3126 3126 3126 3126 3126 3125 3125 3125 3125 3125 3124 3123 3122 3122 3123 3124 3125 3126 3127 3127 3127 3127 3127 3127 3127 3127 3127 3126 3126 3124 3124 3124 3123 3122 3122 3121 3120 3119 3117 3116 3115 3113 3112 3111 3110 3108 3107 3105 3104 3102 3100 3098 3097 3095
3088 3090 3093 3095 3098 3100 3102 3103 3104 3106 3107 3108 3110 3111 3112 3112 3113 3114 3115 3116 3117 3118 3119 3120 3120 3121 3121 3121 3122 3122 3122 3122 3122 3122 3122 3121 3121 3120 3120 3121 3121 3120 3119 3118 3118 3119 3120 3122 3123 3124 3124 3124 3124 3124 3125 3125 3125 3124 3124 3124 3123 3122 3122 3121 3120 3120 3119 3118 3117 3115 3114 3113 3111 3110 3109 3108 3107 3105 3104 3102 3101 3099 3097 3095 3093
3086 3089 3091 3094 3096 3098 3100 3101 3103 3104 3106 3107 3108 3109 3110 3111 3111 3112 3113 3114 3115 3115 3116 3117 3118 3118 3118 3118 3119 3119 3119 3119 3118 3116 3116 3117 3116 3115 3116 3117 3117 3116 3116 3116 3116 3117 3118 3119 3120 3121 3121 3121 3122 3122 3122 3122 3122 3122 3122 3121 3121 3120 3120 3119 3118 3117 3116 3115 3114 3113 3112 3111 3109 3108 3107 3106 3105 3104 3102 3101 3099 3097 3095 3093 3091
3085 3088 3090 3092 3094 3096 3098 3099 3101 3103 3105 3105 3106 3107 3108 3108 3109 3110 3110 3111 3112 3113 3113 3114 3115 3115 3115 3115 3116 3116 3115 3114 3113 3112 3112 3112 3112 3111 3112 3113 3113 3113 3112 3112 3113 3114 3116 3116 3117 3118 3118 3119 3119 3119 3119 3120 3120 3119 3119 3118 3118 3118 3117 3117 3116 3115 3114 3113 3112 3111 3110 3109 3108 3106 3105 3104 3103 3101 3100 3098 3097 3095 3093 3091 3089
3084 3086 3089 3091 3093 3095 3096 3098 3100 3101 3102 3103 3103 3104 3105 3106 3107 3107 3108 3109 3109 3110 3111 3111 3111 3111 3112 3112 3112 3112 3111 3111 3110 3109 3109 3108 3108 3108 3108 3109 3109 3110 3110 3109 3110 3111 3113 3113 3114 3115 3115 3115 3116 3116 3116 3117 3117 3117 3116 3115 3115 3115 3114 3114 3113 3112 3112 3111 3110 3109 3108 3107 3106 3104 3103 3102 3101 3099 3098 3096 3094 3092 3090 3089 3087
3082 3085 3087 3089 3091 3093 3095 3096 3097 3098 3099 3100 3101 3102 3103 3104 3104 3105 3106 3106 3106 3107 3107 3108 3108 3108 3108 3108 3108 3108 3108 3108 3107 3106 3106 3105 3105 3105 3105 3105 3106 3107 3107 3107 3108 3109 3110 3111 3112 3112 3112 3112 3113 3113 3113 3114 3114 3114 3113 3113 3112 3112 3111 3111 3111 3110 3109 3108 3108 3107 3106 3105 3103 3102 3101 3099 3098 3097 3095 3093 3092 3090 3088 3086 3085
3081 3083 3085 3088 3090 3092 3093 3094 3095 3096 3097 3098 3099 3100 3101 3101 3102 3102 3103 3103 3103 3104 3105 3105 3105 3106 3106 3106 3106 3105 3105 3104 3104 3103 3103 3102 3102 3102 3102 3102 3103 3104 3104 3105 3105 3106 3107 3108 3109 3109 3109 3109 3109 3110 3110 3111 3111 3110 3110 3110 3110 3109 3109 3108 3108 3107 3107 3106 3105 3104 3103 3102 3101 3100 3098 3097 3095 3094 3093 3091 3089 3088 3086 3084 3082
3079 3082 3084 3086 3088 3089 3090 3091 3092 3093 3094 3095 3096 3097 3098 3099 3099 3099 3100 3100 3100 3101 3102 3103 3103 3104 3104 3104 3103 3102 3102 3101 3101 3100 3100 3099 3099 3099 3099 3099 3100 3101 3102 3102 3102 3102 3103 3104 3105 3106 3106 3106 3106 3106 3107 3108 3108 3107 3107 3107 3107 3106 3106 3106 3105 3105 3104 3103 3102 3101 3100 3099 3098 3097 3096 3094 3093 3092 3090 3089 3087 3086 3084 3082 3080
3078 3080 3082 3084 3085 3086 3087 3088 3090 3091 3092 3093 3094 3095 3095 3096 3097 3097 3097 3097 3098 3099 3100 3100 3101 3102 3102 3101 3100 3099 3099 3098 3098 3097 3097 3097 3097 3097 3097 3097 3097 3097 3098 3098 3098 3099 3099 3100 3101 3102 3102 3102 3102 3103 3104 3104 3105 3104 3104 3104 3104 3103 3103 3103 3102 3102 3101 3100 3100 3099 3098 3097 3096 3095 3093 3092 3090 3089 3088 3086 3085 3083 3082 3080 3078
3076 3078 3080 3081 3082 3083 3085 3086 3088 3089 3090 3091 3091 3092 3093 3094 3094 3094 3095 3095 3096 3097 3098 3099 3099 3099 3099 3098 3098 3097 3096 3096 3096 3095 3095 3094 3094 3094 3094 3094 3094 3094 3094 3095 3095 3095 3096 3096 3097 3097 3098 3098 3098 3099 3101 3101 3101 3101 3101 3101 3101 3100 3100 3100 3099 3099 3098 3098 3097 3096 3095 3094 3093 3092 3091 3089 3088 3087 3085 3084 3083 3081 3080 3078 3077
3074 3076 3077 3079 3080 3082 3083 3085 3086 3087 3088 3089 3089 3090 3091 3091 3092 3092 3093 3093 3094 3095 3096 3096 3096 3096 3096 3096 3096 3095 3095 3094 3094 3093 3092 3092 3092 3092 3092 3092 3091 3091 3091 3091 3091 3092 3092 3092 3093 3093 3094 3094 3095 3096 3097 3097 3097 3097 3097 3097 3098 3097 3097 3096 3096 3096 3095 3094 3094 3094 3093 3092 3091 3090 3089 3087 3086 3085 3083 3082 3081 3080 3078 3076 3075
3072 3073 3075 3077 3078 3080 3081 3083 3084 3085 3086 3086 3087 3088 3089 3089 3090 3090 3090 3091 3091 3092 3093 3094 3094 3094 3094 3094 3094 3093 3093 3092 3091 3091 3090 3090 3090 3089 3089 3089 3088 3088 3087 3087 3087 3087 3088 3089 3089 3090 3090 3090 3091 3093 3093 3093 3094 3093 3093 3094 3094 3094 3093 3093 3094 3094 3092 3091 3091 3091 3091 3090 3089 3088 3087 3086 3084 3083 3082 3081 3079 3078 3076 3074 3073
3070 3071 3073 3075 3076 3078 3079 3080 3081 3082 3083 3084 3085 3086 3086 3087 3087 3088 3088 3088 3089 3090 3091 3091 3092 3091 3091 3092 3092 3092 3091 3090 3089 3088 3088 3088 3087 3086 3086 3085 3085 3085 3084 3083 3083 3083 3084 3085 3085 3086 3086 3087 3088 3089 3090 3090 3090 3090 3090 3090 3090 3090 3090 3090 3091 3091 3090 3089 3089 3089 3089 3088 3087 3086 3085 3083 3082 3081 3080 3078 3076 3075 3073 3071 3070
3068 3070 3071 3073 3075 3076 3077 3078 3079 3080 3081 3082 3082 3083 3084 3084 3085 3085 3086 3086 3086 3087 3088 3089 3089 3089 3089 3089 3089 3089 3088 3087 3086 3086 3085 3085 3084 3083 3083 3082 3082 3081 3080 3080 3080 3080 3080 3080 3081 3082 3083 3084 3086 3087 3087 3088 3088 3088 3087 3087 3087 3087 3087 3087 3088 3088 3087 3086 3087 3087 3086 3085 3084 3083 3081 3080 3079 3078 3077 3075 3074 3072 3070 3068 3067
3066 3068 3070 3071 3073 3074 3075 3076 3077 3078 3078 3079 3080 3081 3082 3082 3082 3083 3083 3084 3084 3085 3086 3086 3086 3086 3086 3087 3087 3086 3085 3084 3083 3083 3082 3081 3081 3080 3080 3079 3078 3077 3076 3076 3076 3076 3077 3077 3078 3079 3080 3081 3082 3083 3084 3084 3084 3083 3083 3083 3084 3084 3084 3084 3084 3084 3084 3084 3084 3084 3082 3081 3080 3079 3078 3077 3076 3075 3074 3073 3071 3069 3067 3065 3063
3065 3066 3068 3069 3070 3071 3072 3073 3074 3075 3076 3076 3077 3078 3079 3080 3080 3080 3081 3081 3082 3083 3084 3084 3084 3084 3084 3084 3084 3083 3083 3082 3081 3081 3080 3079 3078 3077 3077 3076 3075 3074 3073 3072 3073 3073 3073 3074 3074 3075 3076 3077 3078 3079 3079 3079 3079 3079 3079 3079 3080 3080 3081 3081 3082 3081 3081 3081 3081 3080 3079 3077 3076 3075 3074 3073 3072 3071 3070 3069 3068 3066 3064 3062 3060
3063 3064 3065 3066 3067 3068 3069 3071 3072 3072 3073 3074 3075 3076 3077 3078 3078 3078 3079 3079 3080 3080 3080 3081 3082 3082 3081 3081 3081 3080 3080 3079 3079 3078 3078 3076 3075 3074 3074 3073 3072 3071 3070 3070 3070 3070 3070 3070 3071 3071 3072 3072 3073 3074 3074 3074 3074 3075 3075 3076 3076 3077 3078 3078 3078 3078 3078 3077 3077 3076 3075 3074 3073 3071 3071 3070 3069 3067 3066 3065 3064 3062 3060 3059 3057
3061 3062 3063 3064 3065 3066 3067 3068 3069 3070 3071 3071 3072 3073 3075 3075 3075 3076 3076 3077 3078 3078 3077 3078 3079 3079 3079 3079 3079 3078 3077 3077 3077 3076 3075 3074 3073 3071 3070 3070 3069 3068 3067 3067 3067 3066 3066 3066 3067 3067 3068 3069 3069 3069 3069 3070 3071 3071 3071 3072 3073 3074 3075 3075 3075 3075 3075 3074 3074 3073 3072 3071 3070 3068 3067 3066 3065 3064 3063 3061 3060 3058 3057 3055 3053
3060 3061 3062 3062 3063 3064 3064 3065 3066 3067 3068 3068 3069 3070 3072 3073 3073 3073 3073 3074 3075 3075 3074 3075 3076 3076 3076 3076 3075 3075 3075 3074 3074 3073 3072 3071 3070 3068 3067 3067 3066 3065 3064 3064 3064 3063 3063 3063 3063 3063 3064 3064 3065 3065 3066 3066 3067 3067 3068 3069 3070 3070 3071 3071 3072 3072 3072 3071 3071 3070 3069 3068 3067 3066 3064 3063 3062 3061 3060 3058 3057 3055 3053 3052 3050
3058 3059 3059 3060 3061 3061 3062 3062 3063 3064 3065 3066 3066 3067 3068 3069 3069 3070 3070 3071 3071 3071 3071 3072 3073 3073 3073 3072 3072 3072 3071 3071 3071 3070 3069 3068 3067 3065 3065 3064 3063 3062 3061 3061 3060 3060 3060 3060 3060 3060 3060 3060 3061 3061 3062 3063 3063 3064 3065 3065 3066 3067 3068 3068 3069 3069 3068 3068 3067 3066 3065 3065 3064 3062 3061 3060 3059 3058 3056 3055 3054 3052 3050 3048 3046
3056 3056 3057 3058 3058 3058 3059 3060 3060 3061 3062 3062 3063 3064 3065 3066 3066 3067 3068 3068 3068 3067 3068 3069 3069 3069 3069 3068 3068 3068 3068 3067 3067 3066 3065 3064 3063 3062 3062 3061 3060 3060 3059 3058 3058 3057 3057 3057 3057 3057 3057 3057 3058 3058 3058 3059 3060 3061 3061 3062 3063 3064 3065 3065 3065 3065 3065 3064 3064 3063 3062 3061 3060 3059 3058 3057 3056 3055 3053 3051 3050 3048 3046 3044 3042
3053 3054 3054 3055 3055 3056 3056 3057 3057 3058 3058 3059 3060 3061 3062 3063 3063 3064 3065 3065 3065 3065 3065 3065 3065 3065 3065 3065 3065 3064 3064 3063 3063 3062 3061 3061 3060 3059 3058 3058 3058 3057 3056 3056 3055 3055 3055 3054 3054 3054 3055 3055 3055 3055 3055 3056 3057 3057 3058 3059 3060 3061 3062 3062 3062 3062 3062 3061 3060 3060 3059 3058 3058 3056 3055 3054 3052 3051 3049 3048 3046 3044 3042 3041 3039
3049 3050 3051 3052 3052 3053 3053 3054 3054 3054 3055 3056 3057 3058 3059 3059 3060 3061 3062 3062 3062 3063 3062 3061 3061 3062 3062 3061 3061 3061 3061 3060 3060 3059 3058 3057 3056 3055 3055 3055 3054 3054 3053 3053 3052 3052 3052 3052 3052 3052 3052 3052 3052 3052 3052 3053 3054 3054 3055 3056 3058 3059 3059 3059 3059 3059 3059 3058 3058 3057 3056 3056 3054 3053 3051 3050 3049 3047 3045 3043 3042 3040 3038 3037 3035
3046 3047 3048 3049 3050 3050 3050 3050 3051 3051 3052 3053 3054 3055 3056 3057 3057 3058 3059 3059 3059 3059 3059 3058 3058 3059 3058 3058 3058 3058 3058 3058 3057 3056 3055 3054 3053 3052 3052 3051 3050 3050 3050 3050 3050 3050 3050 3050 3049 3049 3049 3049 3049 3049 3050 3051 3052 3053 3054 3055 3055 3056 3056 3056 3056 3056 3056 3056 3055 3054 3053 3052 3051 3049 3048 3047 3045 3043 3042 3040 3038 3037 3035 3033 3031
3044 3044 3045 3045 3046 3047 3047 3048 3048 3048 3049 3050 3051 3052 3053 3054 3054 3055 3055 3055 3056 3056 3056 3055 3055 3055 3055 3054 3055 3055 3055 3055 3054 3053 3052 3051 3050 3049 3049 3048 3048 3047 3048 3048 3047 3047 3048 3047 3047 3047 3047 3047 3047 3047 3048 3049 3050 3051 3052 3052 3053 3053 3053 3053 3053 3053 3053 3052 3052 3051 3050 3048 3047 3046 3045 3043 3041 3040 3038 3037 3035 3033 3031 3030 3028
3041 3042 3042 3042 3043 3044 3045 3045 3045 3046 3046 3047 3047 3048 3049 3050 3051 3051 3051 3052 3052 3052 3052 3052 3052 3052 3052 3052 3052 3053 3052 3052 3051 3050 3049 3048 3047 3046 3046 3046 3045 3045 3045 3045 3045 3045 3045 3045 3045 3045 3045 3045 3046 3047 3048 3048 3049 3049 3050 3050 3050 3051 3051 3051 3051 3050 3050 3049 3048 3047 3046 3045 3044 3042 3041 3039 3038 3037 3035 3033 3032 3030 3028 3026 3024
3039 3039 3039 3039 3040 3041 3042 3042 3043 3043 3043 3044 3044 3045 3046 3046 3047 3048 3048 3049 3049 3050 3050 3049 3049 3049 3049 3049 3049 3050 3049 3049 3048 3047 3046 3045 3045 3044 3043 3043 3043 3043 3043 3042 3042 3042 3042 3042 3042 3042 3043 3044 3045 3046 3046 3047 3047 3047 3048 3048 3048 3048 3048 3048 3048 3047 3046 3046 3045 3044 3042 3041 3040 3039 3037 3036 3035 3033 3032 3030 3028 3026 3024 3023 3021
3036 3036 3037 3037 3037 3038 3039 3039 3039 3040 3041 3041 3041 3042 3043 3043 3044 3045 3046 3046 3046 3047 3047 3047 3046 3046 3046 3046 3047 3047 3046 3046 3045 3044 3043 3043 3042 3041 3041 3041 3040 3040 3040 3040 3040 3040 3040 3040 3039 3040 3041 3042 3043 3044 3044 3044 3045 3045 3046 3046 3046 3046 3046 3045 3045 3044 3044 3043 3042 3040 3039 3038 3037 3035 3034 3033 3031 3030 3028 3027 3025 3023 3021 3019 3017
3033 3034 3034 3035 3035 3035 3036 3036 3036 3037 3037 3038 3039 3039 3040 3041 3041 3042 3043 3043 3043 3044 3044 3043 3043 3043 3044 3044 3044 3044 3044 3043 3042 3041 3040 3040 3039 3039 3038 3038 3037 3037 3037 3037 3037 3037 3038 3038 3038 3039 3040 3041 3041 3042 3042 3043 3043 3044 3044 3044 3044 3044 3043 3043 3042 3042 3041 3040 3039 3037 3036 3035 3034 3032 3031 3030 3028 3027 3025 3023 3022 3020 3018 3016 3013
3030 3030 3031 3032 3032 3032 3033 3033 3033 3034 3034 3035 3036 3036 3037 3038 3038 3039 3040 3040 3041 3041 3041 3041 3041 3041 3041 3041 3042 3041 3041 3040 3039 3038 3038 3037 3036 3036 3035 3035 3035 3035 3035 3035 3035 3036 3036 3036 3037 3038 3038 3039 3039 3040 3041 3041 3041 3042 3042 3042 3042 3041 3041 3040 3040 3039 3038 3037 3036 3034 3033 3032 3031 3029 3028 3027 3025 3024 3022 3020 3018 3016 3014 3011 3009
3026 3027 3027 3028 3029 3029 3029 3029 3030 3030 3031 3031 3033 3034 3035 3035 3036 3036 3037 3037 3038 3038 3038 3038 3038 3038 3038 3039 3039 3038 3038 3037 3036 3035 3035 3035 3034 3034 3033 3033 3033 3033 3033 3033 3034 3035 3035 3035 3036 3036 3036 3037 3038 3038 3039 3039 3040 3040 3040 3040 3039 3039 3039 3038 3037 3036 3035 3034 3033 3032 3030 3029 3028 3027 3025 3024 3022 3020 3018 3016 3014 3011 3009 3006 3003
3023 3023 3023 3024 3024 3025 3025 3026 3026 3026 3027 3028 3029 3031 3031 3032 3033 3033 3034 3034 3035 3035 3035 3035 3035 3035 3035 3036 3036 3035 3035 3034 3034 3033 3033 3032 3032 3031 3031 3031 3031 3031 3032 3032 3033 3033 3033 3034 3034 3035 3035 3036 3036 3037 3037 3037 3037 3038 3038 3037 3037 3037 3036 3035 3034 3033 3032 3031 3030 3029 3028 3027 3025 3024 3022 3021 3019 3017 3014 3012 3009 3007 3004 3001 2998
3020 3020 3020 3020 3021 3021 3021 3022 3022 3023 3024 3025 3026 3027 3028 3028 3029 3029 3030 3031 3032 3032 3032 3032 3032 3033 3033 3033 3033 3033 3032 3032 3031 3031 3030 3030 3029 3029 3029 3029 3029 3030 3030 3030 3031 3031 3032 3032 3033 3033 3034 3034 3034 3035 3035 3035 3036 3036 3035 3035 3035 3034 3033 3033 3032 3031 3030 3029 3028 3026 3025 3024 3022 3021 3019 3017 3015 3012 3010 3007 3005 3002 2999 2996 2993
3016 3016 3017 3017 3017 3018 3018 3018 3019 3019 3020 3020 3022 3023 3024 3024 3025 3025 3027 3028 3029 3029 3029 3029 3030 3030 3030 3030 3030 3030 3029 3029 3028 3027 3027 3027 3027 3027 3027 3027 3027 3028 3028 3029 3029 3030 3030 3031 3031 3032 3032 3033 3033 3033 3034 3034 3034 3034 3033 3033 3032 3032 3031 3030 3029 3028 3027 3026 3025 3024 3022 3021 3019 3017 3015 3013 3010 3008 3005 3002 3000 2997 2994 2991 2988
3012 3013 3013 3013 3013 3014 3014 3014 3014 3015 3015 3016 3017 3018 3019 3020 3021 3022 3023 3025 3025 3025 3026 3026 3027 3027 3027 3027 3027 3026 3026 3026 3025 3024 3024 3025 3025 3025 3025 3025 3026 3026 3026 3027 3027 3028 3029 3029 3030 3031 3031 3031 3032 3032 3032 3032 3032 3031 3031 3031 3030 3030 3029 3028 3027 3026 3025 3024 3022 3021 3019 3017 3015 3013 3011 3008 3006 3003 3000 2998 2995 2992 2990 2987 2984